Flag Weather past 2 weeks in Fellbach, Baden-Württemberg, Germany

Now
36 °F

Passing clouds.


Feels Like: 36 °F
Forecast: 33 / 44 °F
Wind: 1 mph from North

Location: Stuttgart-Echterdingen

Current Time: Nov 28, 2014 at 4:26:13 AM

Latest Report: Nov 28, 2014 at 3:50 AM


Visibility: 5 mi

Pressure: 29.80 "Hg

Humidity: 100%

Dew point: 36 °F

Location of FellbachLocation

Historic Weather in Fellbach — Graph

°F

Fellbach temperature yesterday

Maximum temperature yesterday: 46 °F (at 12:50 PM)
Minimum temperature yesterday: 39 °F (at 10:20 PM)
Average temperature yesterday: 42 °F

Past Weeks' High & Low Weather Summary

 TemperatureHumidityPressure
High57 °F (Nov 22, 2:20 PM)100% (Nov 13, 3:20 AM)30.30 "Hg (Nov 13, 3:20 AM)
Low34 °F (Nov 20, 2:50 AM)63% (Nov 16, 3:20 PM)29.53 "Hg (Nov 15, 10:20 PM)
Average44 °F91%29.95 "Hg
* Reported Nov 13 3:20 AM — Nov 28 3:20 AM, Fellbach, Weather by CustomWeather, © 2014

Note: Actual official high and low records may vary slightly from our data, if they occured in-between our weather recording intervals... More about our weather records

Advertising

Fellbach weather history for previous 24 hours

 ConditionsComfort  
Time TempWeatherWind HumidityBarometerVisibility
3:20 AM
Nov 28
36 °FClear.1 mph100%29.80 "Hg5 mi
2:50 AM36 °FClear.2 mph100%29.80 "Hg5 mi
2:20 AM36 °FClear.1 mph100%29.80 "Hg5 mi
1:50 AM36 °FPassing clouds.2 mph100%29.80 "Hg5 mi
1:20 AM37 °FPassing clouds.2 mph93%29.80 "HgN/A
12:50 AM37 °FPassing clouds.2 mph93%29.80 "HgN/A
12:20 AM37 °FPassing clouds.3 mph93%29.80 "HgN/A
11:50 PM
Nov 27
39 °FPartly cloudy.2 mph93%29.80 "HgN/A
11:20 PM39 °FPartly cloudy.2 mph93%29.80 "HgN/A
10:50 PM39 °FPartly cloudy.3 mph93%29.80 "HgN/A
10:20 PM39 °FPassing clouds.2 mph93%29.80 "HgN/A
9:50 PM41 °FPassing clouds.3 mph87%29.80 "HgN/A
9:20 PM41 °FPassing clouds.3 mph87%29.80 "HgN/A
8:50 PM41 °FPassing clouds.5 mph87%29.80 "HgN/A
8:20 PM41 °FPassing clouds.6 mph87%29.80 "HgN/A
7:50 PM41 °FPassing clouds.6 mph87%29.80 "HgN/A
7:20 PM41 °FPassing clouds.5 mph93%29.80 "HgN/A
6:50 PM41 °FPassing clouds.8 mph87%29.80 "HgN/A
6:20 PM41 °FPassing clouds.6 mph93%29.80 "HgN/A
5:50 PM41 °FPassing clouds.5 mph93%29.77 "HgN/A
5:20 PM41 °FPartly cloudy.3 mph93%29.77 "HgN/A
4:50 PM41 °FPassing clouds.7 mph93%29.77 "HgN/A
4:20 PM43 °FSunny.8 mph87%29.77 "Hg10 mi
3:50 PM43 °FSunny.5 mph87%29.77 "Hg10 mi
3:20 PM45 °FSunny.6 mph87%29.77 "Hg10 mi
2:50 PM45 °FSunny.3 mph87%29.77 "Hg10 mi
2:20 PM45 °FSunny.5 mph87%29.77 "Hg10 mi
1:50 PM45 °FSunny.3 mph87%29.77 "Hg10 mi
1:20 PM46 °FSunny.5 mph82%29.77 "Hg10 mi
12:50 PM46 °FSunny.5 mph82%29.77 "Hg10 mi
12:20 PM45 °FPartly sunny.3 mph81%29.77 "HgN/A
11:50 AM45 °FPartly sunny.2 mph81%29.80 "HgN/A
11:20 AM43 °FBroken clouds.3 mph87%29.80 "HgN/A
10:50 AM43 °FPartly sunny.3 mph87%29.80 "HgN/A
10:20 AM43 °FPartly sunny.3 mph87%29.80 "HgN/A
9:20 AM41 °FPartly sunny.5 mph93%29.80 "HgN/A
8:50 AM41 °FPartly sunny.3 mph93%29.80 "HgN/A
8:20 AM41 °FPartly sunny.3 mph93%29.80 "HgN/A
7:50 AM41 °FPartly sunny.3 mph93%29.80 "HgN/A
7:20 AM41 °FPartly cloudy.6 mph93%29.80 "HgN/A
6:50 AM41 °FPassing clouds.2 mph93%29.80 "HgN/A
6:20 AM41 °FLow clouds.3 mph93%29.80 "HgN/A
5:50 AM41 °FLow clouds.3 mph93%29.83 "HgN/A
5:20 AM41 °FLow clouds.3 mph93%29.83 "HgN/A
4:50 AM41 °FLow clouds.3 mph93%29.83 "HgN/A
4:20 AM41 °FLow clouds.2 mph93%29.83 "HgN/A
Weather by CustomWeather, © 2014

See weather overviewHow to use our weather pages